This is the latest recevied weather packets stored in our database for station/object N9DMT-13. If no packets are shown the sender has not sent any weather packets the latest 10 day(s).
| Time | Temp. | Humidity | Pressure | Rain* | Wind** | Luminosity | Snow |
|---|---|---|---|---|---|---|---|
| 1777483858 | 8.33° C | 69% | 984.5 hPa | 0 mm | - | - | - |
| 1777483558 | 8.89° C | 65% | 984.6 hPa | 0 mm | - | - | - |
| 1777483257 | 8.89° C | 65% | 984.3 hPa | 0 mm | - | - | - |
| 1777482957 | 9.44° C | 63% | 984.4 hPa | 0 mm | - | - | - |
| 1777482656 | 10° C | 62% | 984.3 hPa | 0 mm | - | - | - |
| 1777482355 | 10° C | 61% | 984.2 hPa | 0 mm | - | - | - |
| 1777482054 | 9.44° C | 63% | 984.2 hPa | 0 mm | - | - | - |
| 1777481754 | 9.44° C | 61% | 984.4 hPa | 0 mm | - | - | - |
| 1777481453 | 9.44° C | 62% | 984.3 hPa | 0 mm | - | - | - |
| 1777481152 | 10° C | 58% | 984.2 hPa | 0 mm | - | - | - |
| 1777480851 | 10° C | 58% | 984.1 hPa | 0 mm | - | - | - |
| 1777480551 | 10.56° C | 57% | 984.1 hPa | 0 mm | - | - | - |
| 1777480250 | 11.11° C | 54% | 983.9 hPa | 0 mm | - | - | - |
| 1777479949 | 10.56° C | 55% | 983.8 hPa | 0 mm | - | - | - |
| 1777479648 | 11.11° C | 50% | 983.7 hPa | 0 mm | - | - | - |
| 1777479347 | 11.11° C | 50% | 983.9 hPa | 0 mm | - | - | - |
| 1777479047 | 11.67° C | 50% | 983.7 hPa | 0 mm | - | - | - |
| 1777478746 | 11.11° C | 55% | 983.8 hPa | 0 mm | - | - | - |
| 1777478446 | 11.67° C | 48% | 983.7 hPa | 0 mm | - | - | - |
| 1777478145 | 12.22° C | 46% | 983.8 hPa | 0 mm | - | - | - |
| 1777477844 | 12.22° C | 51% | 983.6 hPa | 0 mm | - | - | - |
| 1777477543 | 11.67° C | 51% | 983.7 hPa | 0 mm | - | - | - |
| 1777477242 | 11.67° C | 48% | 983.7 hPa | 0 mm | - | - | - |
| 1777476942 | 11.67° C | 53% | 983.5 hPa | 0 mm | - | - | - |
| 1777476641 | 12.78° C | 46% | 983.5 hPa | 0 mm | - | - | - |
* Rain latest hour (hover to see other rain measurements)
** Current wind speed in m/s (hover to see current wind gust speed)